N8TZ Weather Reports


time (UTC)temp
C
wind
direction
speed
KPH
gust
KPH
rain 1hr
cm
rain 24hr
cm
rain mn
cm
humidity
%
barometer
mb
20260508072857 3 276 3.2 4.8 0.00 0.00 0.00 85 1011.2
20260508072357 3 276 1.6 3.2 0.00 0.00 0.00 86 1011.2
20260508071856 3 276 1.6 3.2 0.00 0.00 0.00 86 1011.2
20260508071356 3 276 0.0 3.2 0.00 0.00 0.00 86 1011.1
20260508070858 3 276 1.6 4.8 0.00 0.00 0.00 86 1011.2
20260508070356 3 276 3.2 4.8 0.00 0.00 0.00 87 1011.4
20260508065856 3 276 1.6 4.8 0.00 0.00 0.00 87 1011.4
20260508065356 2 276 3.2 6.4 0.00 0.00 0.00 87 1011.5
20260508064855 2 276 3.2 6.4 0.00 0.00 0.00 87 1011.5
20260508064356 2 276 1.6 3.2 0.00 0.00 0.00 87 1011.6
20260508063856 2 276 0.0 4.8 0.00 0.00 0.00 87 1011.6
20260508063355 2 276 1.6 4.8 0.00 0.00 0.00 87 1011.5
20260508062855 2 276 3.2 4.8 0.00 0.00 0.00 88 1011.2
20260508062621 2 276 3.2 6.4 0.00 0.00 0.00 88 1011.4
20260508061857 2 276 4.8 6.4 0.00 0.00 0.00 88 1011.5
20260508061614 2 286 3.2 4.8 0.00 0.00 0.00 88 1011.4
20260508060855 2 286 0.0 3.2 0.00 0.00 0.00 87 1011.5
20260508060617 2 286 0.0 0.0 0.00 0.00 0.00 87 1011.5
20260508060113 2 286 0.0 0.0 0.00 0.00 0.00 86 1011.6
20260508055355 3 286 0.0 1.6 0.00 0.00 0.00 86 1011.6
20260508054854 3 286 0.0 1.6 0.00 0.00 0.00 87 1011.7
20260508054355 3 286 0.0 0.0 0.00 0.00 0.00 87 1011.7
20260508054119 3 286 0.0 0.0 0.00 0.00 0.00 87 1011.8
20260508053355 3 286 0.0 1.6 0.00 0.00 0.00 87 1011.9
20260508052854 3 286 0.0 1.6 0.00 0.00 0.00 87 1011.9
20260508052355 3 286 0.0 1.6 0.00 0.00 0.00 87 1011.9
20260508051854 3 286 0.0 0.0 0.00 0.00 0.00 86 1012.0
20260508051354 3 286 0.0 0.0 0.00 0.00 0.00 85 1012.0
20260508051116 3 286 0.0 0.0 0.00 0.00 0.00 86 1012.0
20260508050354 3 286 0.0 1.6 0.00 0.00 0.00 85 1011.9
20260508045852 3 286 0.0 1.6 0.00 0.00 0.00 85 1011.9
20260508045621 3 286 0.0 1.6 0.00 0.00 0.00 84 1011.8
20260508044853 3 286 0.0 0.0 0.00 0.00 0.00 84 1011.8
20260508044353 3 286 0.0 0.0 0.00 0.00 0.00 83 1011.8
20260508043854 3 286 0.0 0.0 0.00 0.00 0.00 83 1011.8
20260508043610 3 286 0.0 0.0 0.00 0.00 0.00 83 1011.8
20260508042853 3 286 0.0 0.0 0.00 0.00 0.00 82 1011.8
20260508042353 3 286 0.0 0.0 0.00 0.00 0.00 82 1011.8
20260508041853 3 286 0.0 0.0 0.00 0.00 0.00 82 1011.7
20260508040853 3 286 0.0 0.0 0.00 0.00 0.00 82 1011.7
20260508040614 4 286 0.0 0.0 0.00 0.00 0.00 82 1011.7
20260508035853 4 286 0.0 0.0 0.00 0.00 0.00 81 1011.7
20260508035353 4 286 0.0 0.0 0.00 0.00 0.00 81 1011.6
20260508034852 4 286 0.0 0.0 0.00 0.00 0.00 80 1011.7
20260508034354 4 286 0.0 0.0 0.00 0.00 0.00 80 1011.7
20260508033853 4 286 0.0 0.0 0.00 0.00 0.00 79 1011.6
20260508033352 4 286 0.0 0.0 0.00 0.00 0.00 78 1011.6
20260508032852 5 286 0.0 0.0 0.00 0.00 0.00 77 1011.6
20260508032353 5 286 0.0 0.0 0.00 0.00 0.00 77 1011.6
20260508031852 5 286 0.0 0.0 0.00 0.00 0.00 77 1011.6
20260508031353 5 286 0.0 0.0 0.00 0.00 0.00 77 1011.6
20260508031121 5 286 0.0 0.0 0.00 0.00 0.00 76 1011.6
20260508030352 5 286 0.0 0.0 0.00 0.00 0.00 75 1011.6
20260508025852 5 286 0.0 0.0 0.00 0.00 0.00 74 1011.7
20260508024851 5 286 0.0 0.0 0.00 0.00 0.00 72 1011.7
20260508024351 5 286 0.0 0.0 0.00 0.00 0.00 71 1011.7
20260508023852 6 286 0.0 0.0 0.00 0.00 0.00 71 1011.7
20260508023116 6 286 0.0 0.0 0.00 0.00 0.00 70 1011.8
20260508022352 6 286 0.0 0.0 0.00 0.00 0.00 69 1011.7
20260508021850 6 286 0.0 0.0 0.00 0.00 0.00 69 1011.7
20260508021617 6 286 0.0 0.0 0.00 0.00 0.00 68 1011.7
20260508020850 6 286 0.0 0.0 0.00 0.00 0.00 68 1011.6
20260508020351 6 286 0.0 0.0 0.00 0.00 0.00 67 1011.4
20260508015851 7 286 0.0 0.0 0.00 0.00 0.00 67 1011.5
20260508015351 7 286 0.0 0.0 0.00 0.00 0.00 67 1011.4
20260508014850 7 286 0.0 0.0 0.00 0.00 0.00 64 1011.4
20260508014350 7 286 0.0 0.0 0.00 0.00 0.00 63 1011.2
20260508013850 7 286 0.0 0.0 0.00 0.00 0.00 63 1011.1
20260508013350 8 286 0.0 0.0 0.00 0.00 0.00 62 1011.1
20260508012850 8 286 0.0 0.0 0.00 0.00 0.00 60 1011.0
20260508012350 9 286 0.0 1.6 0.00 0.00 0.00 60 1011.0
20260508011850 9 286 0.0 3.2 0.00 0.00 0.00 56 1011.0
20260508011350 10 286 0.0 4.8 0.00 0.00 0.00 54 1010.9
20260508010848 10 286 1.6 6.4 0.00 0.00 0.00 52 1010.8
20260508010349 10 286 1.6 6.4 0.00 0.00 0.00 51 1010.8
20260508005850 10 286 1.6 4.8 0.00 0.00 0.00 51 1010.8
20260508005350 10 286 1.6 4.8 0.00 0.00 0.00 51 1010.8
20260508004850 10 286 1.6 4.8 0.00 0.00 0.00 51 1010.7
20260508004349 10 286 1.6 6.4 0.00 0.00 0.00 51 1010.7
20260508003850 10 288 1.6 6.4 0.00 0.00 0.00 51 1010.6
20260508003349 10 288 0.0 4.8 0.00 0.00 0.00 52 1010.7
20260508002849 10 288 0.0 8.0 0.00 0.00 0.00 52 1010.5
20260508002608 11 288 0.0 8.0 0.00 0.00 0.00 51 1010.5
20260508001847 11 288 1.6 8.0 0.00 0.00 0.00 50 1010.4
20260508001347 11 286 3.2 11.3 0.00 0.00 0.00 49 1010.3
20260508000848 11 295 4.8 11.3 0.00 0.00 0.00 49 1010.4
20260507235848 11 333 3.2 11.3 0.00 0.00 0.00 48 1010.3
20260507235349 12 290 4.8 11.3 0.00 0.00 0.00 48 1010.2
20260507234848 12 334 1.6 11.3 0.00 0.00 0.00 47 1010.1
20260507234349 12 274 6.4 11.3 0.00 0.00 0.00 46 1010.0
20260507232347 13 329 9.7 20.9 0.00 0.00 0.00 44 1009.9
20260507231348 13 321 6.4 19.3 0.00 0.00 0.00 44 1009.9
20260507230847 13 321 6.4 17.7 0.00 0.00 0.00 44 1009.8
20260507230349 13 314 9.7 16.1 0.00 0.00 0.00 44 1009.8
20260507225848 13 264 8.0 14.5 0.00 0.00 0.00 42 1009.8
20260507225347 13 21 8.0 19.3 0.00 0.00 0.00 42 1009.7
20260507224848 13 6 8.0 19.3 0.00 0.00 0.00 43 1009.7
20260507224348 13 286 6.4 19.3 0.00 0.00 0.00 42 1009.6
20260507223847 13 264 9.7 25.7 0.00 0.00 0.00 42 1009.6
20260507223348 13 282 11.3 25.7 0.00 0.00 0.00 41 1009.5
20260507222848 14 303 11.3 19.3 0.00 0.00 0.00 39 1009.4
20260507222347 14 309 6.4 19.3 0.00 0.00 0.00 43 1009.4
20260507221847 14 314 6.4 19.3 0.00 0.00 0.00 41 1009.4
20260507221617 14 298 8.0 17.7 0.00 0.00 0.00 42 1009.3
20260507220847 15 320 1.6 17.7 0.00 0.00 0.00 44 1009.1
20260507220347 15 282 6.4 17.7 0.00 0.00 0.00 43 1009.1
20260507215846 15 323 4.8 16.1 0.00 0.00 0.00 42 1009.1
20260507215346 15 300 6.4 16.1 0.00 0.00 0.00 41 1009.1
20260507214847 15 258 4.8 16.1 0.00 0.00 0.00 47 1009.0
20260507214346 15 313 6.4 17.7 0.00 0.00 0.00 41 1008.8
20260507213846 15 285 6.4 17.7 0.00 0.00 0.00 43 1008.8
20260507213608 15 299 8.0 14.5 0.00 0.00 0.00 41 1008.8
20260507212846 15 345 1.6 17.7 0.00 0.00 0.00 45 1008.9
20260507212610 14 283 8.0 17.7 0.00 0.00 0.00 44 1008.9
20260507212110 15 314 9.7 17.7 0.00 0.00 0.00 42 1008.7
20260507210845 14 331 3.2 16.1 0.00 0.00 0.00 46 1008.6
20260507210346 13 307 6.4 14.5 0.00 0.00 0.00 46 1008.6
20260507210105 13 264 8.0 14.5 0.00 0.00 0.00 43 1008.6
20260507205345 14 299 4.8 16.1 0.00 0.00 0.00 47 1008.7
20260507204845 14 309 4.8 16.1 0.00 0.00 0.00 46 1008.6
20260507204345 14 310 6.4 14.5 0.00 0.00 0.00 45 1008.4
20260507203846 15 265 8.0 20.9 0.00 0.00 0.00 44 1008.4
20260507203609 15 303 12.9 22.5 0.00 0.00 0.00 42 1008.6
20260507202843 15 262 8.0 22.5 0.00 0.00 0.00 42 1008.4
20260507202343 15 265 12.9 22.5 0.00 0.00 0.00 41 1008.3
20260507201843 15 283 11.3 19.3 0.00 0.00 0.00 40 1008.6
20260507201609 15 298 3.2 11.3 0.00 0.00 0.00 45 1008.4
20260507200845 15 266 8.0 11.3 0.00 0.00 0.00 45 1008.6
20260507200346 15 303 3.2 20.9 0.00 0.00 0.00 49 1008.4
20260507195845 13 299 8.0 20.9 0.00 0.00 0.00 45 1008.6
20260507195605 13 281 9.7 19.3 0.00 0.00 0.00 45 1008.8
20260507194845 14 257 12.9 20.9 0.00 0.00 0.00 42 1008.8
20260507194344 14 292 9.7 20.9 0.00 0.00 0.00 45 1008.8
20260507193844 14 281 6.4 22.5 0.00 0.00 0.00 44 1008.9
20260507193344 15 258 12.9 22.5 0.00 0.00 0.00 43 1008.9
20260507192844 14 279 9.7 22.5 0.00 0.00 0.00 46 1009.0
20260507192343 14 300 9.7 27.4 0.00 0.00 0.00 44 1009.0
20260507191844 14 274 11.3 27.4 0.00 0.00 0.00 47 1009.0
20260507191344 14 252 8.0 19.3 0.00 0.00 0.00 41 1009.0
20260507190843 15 254 11.3 19.3 0.00 0.00 0.00 41 1009.1
20260507190344 15 237 12.9 17.7 0.00 0.00 0.00 47 1009.2
20260507185844 15 281 6.4 27.4 0.00 0.00 0.00 48 1009.0
20260507185602 15 268 14.5 27.4 0.00 0.00 0.00 44 1009.0
20260507184843 15 233 11.3 19.3 0.00 0.00 0.00 42 1008.9
20260507184343 15 298 9.7 27.4 0.00 0.00 0.00 44 1009.1
20260507183842 15 327 9.7 27.4 0.00 0.00 0.00 42 1009.0
20260507183606 15 237 11.3 19.3 0.00 0.00 0.00 43 1009.1
20260507182843 15 259 11.3 17.7 0.00 0.00 0.00 43 1009.1
20260507182342 14 344 9.7 19.3 0.00 0.00 0.00 46 1009.0
20260507181843 13 279 12.9 19.3 0.00 0.00 0.00 42 1009.1
20260507181343 14 321 11.3 17.7 0.00 0.00 0.00 44 1009.2
20260507180842 14 309 9.7 17.7 0.00 0.00 0.00 44 1009.1
20260507180343 14 281 9.7 19.3 0.00 0.00 0.00 42 1009.2
20260507180103 14 288 6.4 19.3 0.00 0.00 0.00 49 1009.2
20260507175342 15 285 8.0 17.7 0.00 0.00 0.00 46 1009.2
20260507174842 14 264 8.0 25.7 0.00 0.00 0.00 46 1009.3
20260507174342 15 265 9.7 25.7 0.00 0.00 0.00 46 1009.4
20260507173843 15 265 6.4 19.3 0.00 0.00 0.00 45 1009.3
20260507173342 14 305 6.4 20.9 0.00 0.00 0.00 47 1009.5
20260507172842 13 289 9.7 20.9 0.00 0.00 0.00 45 1009.5
20260507172342 13 293 8.0 19.3 0.00 0.00 0.00 46 1009.5
20260507171840 13 243 9.7 17.7 0.00 0.00 0.00 50 1009.6
20260507171344 13 266 3.2 16.1 0.00 0.00 0.00 47 1009.6
20260507170843 13 261 8.0 20.9 0.00 0.00 0.00 42 1009.7
20260507170341 13 278 9.7 20.9 0.00 0.00 0.00 48 1009.9
20260507170103 13 283 11.3 16.1 0.00 0.00 0.00 44 1009.8
20260507165342 14 271 4.8 17.7 0.00 0.00 0.00 47 1010.0
20260507164842 13 274 9.7 17.7 0.00 0.00 0.00 45 1010.1
20260507164341 13 292 9.7 19.3 0.00 0.00 0.00 49 1010.1
20260507164101 13 344 8.0 19.3 0.00 0.00 0.00 45 1010.0
20260507163343 13 329 4.8 16.1 0.00 0.00 0.00 46 1010.1
20260507162839 13 265 8.0 17.7 0.00 0.00 0.00 50 1010.0
20260507162340 13 255 11.3 24.1 0.00 0.00 0.00 48 1010.1
20260507161839 13 309 11.3 24.1 0.00 0.00 0.00 48 1010.0
20260507161341 13 274 14.5 24.1 0.00 0.00 0.00 47 1010.1
20260507160841 13 238 6.4 24.1 0.00 0.00 0.00 48 1010.1
20260507160601 13 272 11.3 24.1 0.00 0.00 0.00 49 1010.1
20260507155841 13 233 12.9 24.1 0.00 0.00 0.00 51 1010.1
20260507155341 13 305 4.8 16.1 0.00 0.00 0.00 53 1010.2
20260507154841 13 264 9.7 16.1 0.00 0.00 0.00 53 1010.3
20260507154341 12 234 6.4 16.1 0.00 0.00 0.00 53 1010.2
20260507154105 12 289 8.0 16.1 0.00 0.00 0.00 54 1010.2
20260507153341 12 281 8.0 16.1 0.00 0.00 0.00 55 1010.3
20260507152840 12 276 9.7 14.5 0.00 0.00 0.00 55 1010.3
20260507152602 12 231 6.4 11.3 0.00 0.00 0.00 53 1010.3
20260507151840 12 279 4.8 11.3 0.00 0.00 0.00 54 1010.3
20260507151340 12 276 3.2 14.5 0.00 0.00 0.00 50 1010.3
20260507150839 12 321 6.4 16.1 0.00 0.00 0.00 54 1010.4
20260507145840 12 235 11.3 25.7 0.00 0.00 0.00 52 1010.5
20260507145339 12 245 12.9 25.7 0.00 0.00 0.00 50 1010.5
20260507144839 12 257 12.9 20.9 0.00 0.00 0.00 52 1010.5
20260507144339 12 223 9.7 20.9 0.00 0.00 0.00 55 1010.6
20260507144101 12 262 8.0 19.3 0.00 0.00 0.00 57 1010.7
20260507143341 12 268 8.0 17.7 0.00 0.00 0.00 59 1010.7
20260507142839 11 274 4.8 14.5 0.00 0.00 0.00 61 1010.7
20260507142339 11 285 6.4 14.5 0.00 0.00 0.00 60 1010.8
20260507141839 11 214 9.7 14.5 0.00 0.00 0.00 62 1010.8
20260507141339 11 286 6.4 16.1 0.00 0.00 0.00 61 1011.0
20260507140840 11 257 6.4 16.1 0.00 0.00 0.00 62 1011.0
20260507140338 11 295 3.2 8.0 0.00 0.00 0.00 65 1011.0
20260507135838 11 276 4.8 16.1 0.00 0.00 0.00 63 1011.0
20260507135558 11 243 8.0 16.1 0.00 0.00 0.00 64 1011.2
20260507135057 11 252 6.4 14.5 0.00 0.00 0.00 64 1011.2
20260507134338 11 261 6.4 14.5 0.00 0.00 0.00 63 1011.2
20260507133838 11 286 6.4 16.1 0.00 0.00 0.00 64 1011.2
20260507133338 11 257 8.0 16.1 0.00 0.03 0.00 62 1011.4
20260507132838 11 274 6.4 16.1 0.00 0.03 0.00 65 1011.5
20260507132336 10 234 8.0 16.1 0.00 0.03 0.00 64 1011.5
20260507131838 10 235 8.0 16.1 0.00 0.03 0.00 66 1011.2
20260507130837 10 196 8.0 14.5 0.00 0.03 0.00 70 1011.4
20260507130337 10 203 6.4 14.5 0.00 0.03 0.00 69 1011.4
20260507125838 10 210 6.4 9.7 0.00 0.05 0.00 71 1011.5
20260507125338 9 212 6.4 9.7 0.00 0.05 0.00 72 1011.5
20260507124837 9 217 6.4 9.7 0.00 0.05 0.00 71 1011.5
20260507124338 9 209 6.4 9.7 0.00 0.05 0.00 74 1011.5
20260507123837 8 233 4.8 8.0 0.00 0.05 0.00 76 1011.5
20260507123335 8 234 3.2 8.0 0.00 0.05 0.00 78 1011.4
20260507122835 8 234 4.8 8.0 0.00 0.05 0.00 79 1011.5
20260507122335 8 241 4.8 8.0 0.00 0.05 0.00 82 1011.4
20260507122106 7 244 4.8 8.0 0.00 0.05 0.00 85 1011.5
20260507121338 7 252 3.2 6.4 0.00 0.05 0.00 88 1011.5
20260507120836 6 254 4.8 6.4 0.00 0.05 0.00 91 1011.5
20260507120336 6 262 3.2 6.4 0.00 0.05 0.00 93 1011.4
20260507115837 6 350 1.6 3.2 0.00 0.05 0.00 94 1011.4
20260507115336 5 350 1.6 3.2 0.00 0.05 0.00 94 1011.2
20260507114836 5 350 0.0 1.6 0.00 0.05 0.00 94 1011.4
20260507114336 5 350 0.0 1.6 0.00 0.08 0.00 94 1011.2
20260507113836 4 350 0.0 3.2 0.00 0.08 0.00 94 1011.2
20260507113336 4 350 1.6 3.2 0.00 0.10 0.00 94 1011.4
20260507113104 3 350 0.0 3.2 0.00 0.10 0.00 94 1011.2
20260507112336 3 350 0.0 1.6 0.00 0.13 0.00 94 1011.2
20260507111336 3 350 0.0 0.0 0.00 0.13 0.00 94 1011.1
20260507110836 2 350 0.0 0.0 0.00 0.13 0.00 94 1011.1
20260507110335 2 350 0.0 0.0 0.00 0.13 0.00 94 1010.9
20260507105835 2 350 0.0 0.0 0.00 0.13 0.00 93 1010.9
20260507105336 2 350 0.0 0.0 0.00 0.13 0.00 93 1010.7
20260507104835 2 350 0.0 0.0 0.00 0.13 0.00 93 1010.7
20260507103835 2 350 0.0 0.0 0.00 0.13 0.00 93 1010.7
20260507103555 2 350 0.0 0.0 0.00 0.13 0.00 92 1010.6
20260507102835 2 350 0.0 0.0 0.00 0.13 0.00 92 1010.7
20260507102335 2 350 0.0 0.0 0.00 0.13 0.00 92 1010.6
20260507101836 2 350 0.0 0.0 0.00 0.13 0.00 92 1010.7
20260507101335 2 350 0.0 0.0 0.00 0.13 0.00 92 1010.7
20260507101101 2 350 0.0 0.0 0.00 0.13 0.00 92 1010.7
20260507095834 2 350 0.0 0.0 0.00 0.15 0.00 92 1010.7
20260507095334 2 350 0.0 0.0 0.00 0.15 0.00 92 1010.7
20260507094834 2 350 0.0 0.0 0.00 0.18 0.00 92 1010.6
20260507094335 2 350 0.0 0.0 0.00 0.20 0.00 92 1010.5
20260507093834 2 350 0.0 0.0 0.00 0.20 0.00 92 1010.5
20260507093335 2 350 0.0 0.0 0.00 0.20 0.00 91 1010.6
20260507092834 3 350 0.0 0.0 0.00 0.23 0.00 91 1010.6
20260507092333 3 350 0.0 0.0 0.00 0.23 0.00 91 1010.5
20260507091833 3 350 0.0 0.0 0.00 0.23 0.00 91 1010.5
20260507091333 3 350 0.0 0.0 0.00 0.25 0.00 91 1010.5
20260507090834 3 350 0.0 0.0 0.00 0.25 0.00 91 1010.5
20260507090333 3 350 0.0 0.0 0.00 0.25 0.00 91 1010.5
20260507085834 3 350 0.0 0.0 0.00 0.28 0.00 91 1010.5
20260507085333 3 350 0.0 0.0 0.00 0.28 0.00 90 1010.5
20260507084330 3 350 0.0 0.0 0.00 0.30 0.00 90 1010.6
20260507083332 3 350 0.0 0.0 0.00 0.33 0.00 90 1010.7
20260507083050 3 350 0.0 0.0 0.00 0.36 0.00 89 1010.7
20260507082333 3 350 0.0 0.0 0.00 0.36 0.00 89 1010.8
20260507081833 4 350 0.0 0.0 0.00 0.36 0.00 89 1010.8
20260507081334 4 350 0.0 0.0 0.00 0.38 0.00 89 1010.8
20260507080832 4 350 0.0 0.0 0.00 0.38 0.00 88 1010.8
20260507080332 4 350 0.0 0.0 0.00 0.43 0.00 88 1010.9
20260507075832 4 350 0.0 0.0 0.00 0.46 0.00 88 1010.9
20260507075332 5 350 0.0 0.0 0.00 0.48 0.00 88 1010.8
20260507074332 5 350 0.0 0.0 0.00 0.53 0.00 87 1010.7
20260507074051 5 350 0.0 0.0 0.00 0.53 0.00 86 1010.7
20260507073332 5 350 0.0 0.0 0.00 0.56 0.00 86 1010.7